Time,TemperatureF,DewpointF,PressureIn,WindDirection,WindDirectionDegrees,WindSpeedMPH,WindSpeedGustMPH,Humidity,HourlyPrecipIn,Conditions,Clouds,dailyrainin,SolarRadiationWatts/m^2,SoftwareType,DateUTC
2013-02-19 00:00:00,47.7,40.8,29.95,SW,230,0.0,0.1,77,0.00,BKN,,0.00,0.0,WeatherDisplay:10.37,2013-02-19 08:00:00,
2013-02-19 00:05:00,47.6,40.7,29.95,SW,227,0.0,0.0,77,0.00,BKN,,0.00,0.0,WeatherDisplay:10.37,2013-02-19 08:05:00,
2013-02-19 00:10:00,47.4,40.6,29.95,SW,227,1.1,0.0,77,0.00,BKN,,0.00,0.0,WeatherDisplay:10.37,2013-02-19 08:10:00,
2013-02-19 00:15:00,47.4,40.9,29.95,SW,227,0.0,0.0,78,0.00,BKN,,0.00,0.0,WeatherDisplay:10.37,2013-02-19 08:15:00,
2013-02-19 00:20:00,47.3,40.8,29.95,SW,226,0.0,0.0,78,0.00,BKN,,0.00,0.0,WeatherDisplay:10.37,2013-02-19 08:20:00,
2013-02-19 00:25:00,47.3,41.1,29.95,SW,227,0.0,0.0,79,0.00,BKN,,0.00,0.0,WeatherDisplay:10.37,2013-02-19 08:25:00,
2013-02-19 00:30:00,47.2,40.7,29.95,SW,227,2.3,2.3,78,0.00,BKN,,0.00,0.0,WeatherDisplay:10.37,2013-02-19 08:30:00,
2013-02-19 00:35:00,47.2,40.4,29.95,SW,217,1.1,1.1,77,0.00,BKN,,0.00,0.0,WeatherDisplay:10.37,2013-02-19 08:35:00,
2013-02-19 00:40:00,47.2,40.4,29.95,SW,219,1.1,0.0,77,0.00,BKN,,0.00,0.0,WeatherDisplay:10.37,2013-02-19 08:40:00,
2013-02-19 00:45:00,47.0,39.8,29.95,SW,236,1.1,0.0,76,0.00,BKN,,0.00,0.0,WeatherDisplay:10.37,2013-02-19 08:45:00,
2013-02-19 00:50:00,46.7,39.5,29.95,SW,224,4.0,4.0,76,0.00,BKN,,0.00,0.0,WeatherDisplay:10.37,2013-02-19 08:50:00,
2013-02-19 00:55:00,46.4,39.2,29.95,SW,223,3.5,3.5,76,0.00,BKN,,0.00,0.0,WeatherDisplay:10.37,2013-02-19 08:55:00,
2013-02-19 01:00:00,46.2,39.4,29.95,SW,224,0.0,3.0,77,0.00,BKN,,0.00,0.0,WeatherDisplay:10.37,2013-02-19 09:00:00,
2013-02-19 01:05:00,46.0,39.2,29.95,SW,224,3.5,3.5,77,0.00,SCT,,0.00,0.0,WeatherDisplay:10.37,2013-02-19 09:05:00,
2013-02-19 01:10:00,46.0,39.2,29.95,SW,221,2.3,2.3,77,0.00,SCT,,0.00,0.0,WeatherDisplay:10.37,2013-02-19 09:10:00,
2013-02-19 01:15:00,45.9,38.8,29.95,West,265,4.6,4.6,76,0.00,SCT,,0.00,0.0,WeatherDisplay:10.37,2013-02-19 09:15:00,
2013-02-19 01:20:00,45.7,38.2,29.95,WSW,251,6.9,6.9,75,0.00,SCT,,0.00,0.0,WeatherDisplay:10.37,2013-02-19 09:20:00,
2013-02-19 01:25:00,45.6,38.1,29.95,SW,230,3.5,3.5,75,0.00,SCT,,0.00,0.0,WeatherDisplay:10.37,2013-02-19 09:25:00,
2013-02-19 01:30:00,45.6,38.1,29.95,SW,221,2.3,2.3,75,0.00,SCT,,0.00,0.0,WeatherDisplay:10.37,2013-02-19 09:30:00,
2013-02-19 01:35:00,45.4,38.3,29.95,SW,221,0.0,0.0,76,0.00,SCT,,0.00,0.0,WeatherDisplay:10.37,2013-02-19 09:35:00,
2013-02-19 01:40:00,45.3,38.2,29.95,SW,226,4.0,4.0,76,0.00,SCT,,0.00,0.0,WeatherDisplay:10.37,2013-02-19 09:40:00,
2013-02-19 01:45:00,45.2,38.1,29.95,SW,228,1.1,1.1,76,0.00,SCT,,0.00,0.0,WeatherDisplay:10.37,2013-02-19 09:45:00,
2013-02-19 01:50:00,45.2,38.4,29.95,SW,228,0.0,0.0,77,0.00,SCT,,0.00,0.0,WeatherDisplay:10.37,2013-02-19 09:50:00,
2013-02-19 01:55:00,45.4,38.3,29.95,SSW,198,4.6,4.6,76,0.00,SCT,,0.00,0.0,WeatherDisplay:10.37,2013-02-19 09:55:00,
2013-02-19 02:00:00,45.6,38.8,29.95,SSW,198,0.0,0.2,77,0.00,SCT,,0.00,0.0,WeatherDisplay:10.37,2013-02-19 10:00:00,
2013-02-19 02:05:00,45.7,38.6,29.95,SSW,200,3.5,3.5,76,0.00,CLR,,0.00,0.0,WeatherDisplay:10.37,2013-02-19 10:05:00,
2013-02-19 02:10:00,46.0,38.9,29.95,SW,234,3.5,3.5,76,0.00,CLR,,0.00,0.0,WeatherDisplay:10.37,2013-02-19 10:10:00,
2013-02-19 02:15:00,46.1,38.6,29.94,SSW,213,3.5,3.5,75,0.00,CLR,,0.00,0.0,WeatherDisplay:10.37,2013-02-19 10:15:00,
2013-02-19 02:20:00,46.2,38.4,29.94,South,169,6.9,6.9,74,0.00,CLR,,0.00,0.0,WeatherDisplay:10.37,2013-02-19 10:20:00,
2013-02-19 02:25:00,46.2,38.7,29.94,South,190,2.0,2.0,75,0.00,CLR,,0.00,0.0,WeatherDisplay:10.37,2013-02-19 10:25:00,
2013-02-19 02:30:00,46.1,38.6,29.94,South,191,0.0,2.0,75,0.00,CLR,,0.00,0.0,WeatherDisplay:10.37,2013-02-19 10:30:00,
2013-02-19 02:35:00,46.0,38.2,29.93,SW,215,3.5,3.5,74,0.00,CLR,,0.00,0.0,WeatherDisplay:10.37,2013-02-19 10:35:00,
2013-02-19 02:40:00,46.0,38.2,29.93,WSW,251,3.5,3.5,74,0.00,CLR,,0.00,0.0,WeatherDisplay:10.37,2013-02-19 10:40:00,
2013-02-19 02:45:00,46.0,38.5,29.93,West,279,3.5,3.5,75,0.00,CLR,,0.00,0.0,WeatherDisplay:10.37,2013-02-19 10:45:00,
2013-02-19 02:50:00,46.1,38.3,29.92,West,280,3.5,3.5,74,0.00,CLR,,0.00,0.0,WeatherDisplay:10.37,2013-02-19 10:50:00,
2013-02-19 02:55:00,46.0,38.2,29.92,West,276,0.0,0.0,74,0.00,CLR,,0.00,0.0,WeatherDisplay:10.37,2013-02-19 10:55:00,
2013-02-19 03:00:00,45.8,38.3,29.92,WSW,237,3.5,3.5,75,0.00,CLR,,0.00,0.0,WeatherDisplay:10.37,2013-02-19 11:00:00,
2013-02-19 03:05:00,45.5,38.0,29.92,SSW,206,2.3,2.3,75,0.00,CLR,,0.00,0.0,WeatherDisplay:10.37,2013-02-19 11:05:00,
2013-02-19 03:10:00,45.4,38.3,29.92,SW,233,1.1,1.1,76,0.00,CLR,,0.00,0.0,WeatherDisplay:10.37,2013-02-19 11:10:00,
2013-02-19 03:15:00,45.3,38.2,29.92,WSW,245,1.1,0.0,76,0.00,CLR,,0.00,0.0,WeatherDisplay:10.37,2013-02-19 11:15:00,
2013-02-19 03:20:00,45.3,38.2,29.92,South,182,2.3,2.3,76,0.00,CLR,,0.00,0.0,WeatherDisplay:10.37,2013-02-19 11:20:00,
2013-02-19 03:25:00,45.2,38.1,29.91,SSW,205,2.3,2.3,76,0.00,CLR,,0.00,0.0,WeatherDisplay:10.37,2013-02-19 11:25:00,
2013-02-19 03:30:00,45.1,38.0,29.92,SSW,196,5.8,5.8,76,0.00,CLR,,0.00,0.0,WeatherDisplay:10.37,2013-02-19 11:30:00,
2013-02-19 03:35:00,45.1,38.0,29.91,SW,218,2.3,2.3,76,0.00,CLR,,0.00,0.0,WeatherDisplay:10.37,2013-02-19 11:35:00,
2013-02-19 03:40:00,45.0,37.9,29.92,SSW,209,0.0,0.0,76,0.00,CLR,,0.00,0.0,WeatherDisplay:10.37,2013-02-19 11:40:00,
2013-02-19 03:45:00,44.9,37.8,29.91,SSW,193,3.5,3.5,76,0.00,CLR,,0.00,0.0,WeatherDisplay:10.37,2013-02-19 11:45:00,
2013-02-19 03:50:00,44.7,37.9,29.92,SSW,209,1.1,1.1,77,0.00,CLR,,0.00,0.0,WeatherDisplay:10.37,2013-02-19 11:50:00,
2013-02-19 03:55:00,44.5,37.7,29.91,SSW,202,4.6,4.6,77,0.00,CLR,,0.00,0.0,WeatherDisplay:10.37,2013-02-19 11:55:00,
2013-02-19 04:00:00,44.3,37.5,29.91,SW,236,1.1,1.1,77,0.00,CLR,,0.00,0.0,WeatherDisplay:10.37,2013-02-19 12:00:00,
2013-02-19 04:05:00,44.1,37.7,29.91,SSW,207,2.3,2.3,78,0.00,CLR,,0.00,0.0,WeatherDisplay:10.37,2013-02-19 12:05:00,
2013-02-19 04:10:00,44.3,37.9,29.91,SW,234,2.3,2.3,78,0.00,CLR,,0.00,0.0,WeatherDisplay:10.37,2013-02-19 12:10:00,
2013-02-19 04:15:00,44.5,37.7,29.91,SSW,213,2.3,2.3,77,0.00,CLR,,0.00,0.0,WeatherDisplay:10.37,2013-02-19 12:15:00,
2013-02-19 04:20:00,44.7,37.9,29.91,WSW,253,4.6,4.6,77,0.00,CLR,,0.00,0.0,WeatherDisplay:10.37,2013-02-19 12:20:00,
2013-02-19 04:25:00,44.9,38.1,29.91,WSW,247,3.5,3.5,77,0.00,CLR,,0.00,0.0,WeatherDisplay:10.37,2013-02-19 12:25:00,
2013-02-19 04:30:00,44.8,38.0,29.91,WSW,252,6.0,6.0,77,0.00,CLR,,0.00,0.0,WeatherDisplay:10.37,2013-02-19 12:30:00,
2013-02-19 04:35:00,44.7,37.9,29.91,SW,232,3.5,3.5,77,0.00,CLR,,0.00,0.0,WeatherDisplay:10.37,2013-02-19 12:35:00,
2013-02-19 04:40:00,44.6,38.2,29.91,SW,216,1.1,1.1,78,0.00,CLR,,0.00,0.0,WeatherDisplay:10.37,2013-02-19 12:40:00,
2013-02-19 04:45:00,44.3,37.5,29.91,West,259,1.1,1.1,77,0.00,CLR,,0.00,0.0,WeatherDisplay:10.37,2013-02-19 12:45:00,
2013-02-19 04:50:00,43.3,36.9,29.91,SSE,152,2.3,2.3,78,0.00,CLR,,0.00,0.0,WeatherDisplay:10.37,2013-02-19 12:50:00,
2013-02-19 04:55:00,42.7,37.0,29.92,SSE,152,2.3,2.3,80,0.00,CLR,,0.00,0.0,WeatherDisplay:10.37,2013-02-19 12:55:00,
2013-02-19 05:00:00,42.4,37.0,29.92,SSE,152,0.0,0.0,81,0.00,CLR,,0.00,0.0,WeatherDisplay:10.37,2013-02-19 13:00:00,
2013-02-19 05:05:00,42.1,36.7,29.91,SSE,152,1.0,0.0,81,0.00,CLR,,0.00,0.0,WeatherDisplay:10.37,2013-02-19 13:05:00,
2013-02-19 05:10:00,41.7,36.6,29.91,SE,142,2.3,2.3,82,0.00,CLR,,0.00,0.0,WeatherDisplay:10.37,2013-02-19 13:10:00,
2013-02-19 05:15:00,41.4,36.6,29.91,SE,138,3.5,3.5,83,0.00,CLR,,0.00,0.0,WeatherDisplay:10.37,2013-02-19 13:15:00,
2013-02-19 05:20:00,41.0,36.5,29.91,ESE,117,3.5,3.5,84,0.00,CLR,,0.00,0.0,WeatherDisplay:10.37,2013-02-19 13:20:00,
2013-02-19 05:25:00,40.8,36.3,29.91,ESE,123,2.3,2.3,84,0.00,CLR,,0.00,0.0,WeatherDisplay:10.37,2013-02-19 13:25:00,
2013-02-19 05:30:00,40.7,36.5,29.91,ESE,123,1.1,1.1,85,0.00,CLR,,0.00,0.0,WeatherDisplay:10.37,2013-02-19 13:30:00,
2013-02-19 05:35:00,40.6,36.4,29.90,ESE,123,4.6,4.6,85,0.00,CLR,,0.00,0.0,WeatherDisplay:10.37,2013-02-19 13:35:00,
2013-02-19 05:40:00,40.6,36.4,29.90,SE,128,3.5,3.5,85,0.00,CLR,,0.00,0.0,WeatherDisplay:10.37,2013-02-19 13:40:00,
2013-02-19 05:45:00,40.6,36.4,29.90,SE,141,5.8,5.8,85,0.00,CLR,,0.00,0.0,WeatherDisplay:10.37,2013-02-19 13:45:00,
2013-02-19 05:50:00,40.7,36.5,29.90,SE,146,1.1,1.1,85,0.00,CLR,,0.00,0.0,WeatherDisplay:10.37,2013-02-19 13:50:00,
2013-02-19 05:55:00,40.9,37.0,29.90,SE,138,2.3,2.3,86,0.00,CLR,,0.00,0.0,WeatherDisplay:10.37,2013-02-19 13:55:00,
2013-02-19 06:00:00,41.0,36.8,29.90,SE,137,3.5,3.5,85,0.00,CLR,,0.00,0.0,WeatherDisplay:10.37,2013-02-19 14:00:00,
2013-02-19 06:05:00,41.1,36.9,29.90,SSE,148,3.5,3.5,85,0.00,CLR,,0.00,0.0,WeatherDisplay:10.37,2013-02-19 14:05:00,
2013-02-19 06:10:00,41.1,36.9,29.90,SSE,149,4.0,4.0,85,0.00,CLR,,0.00,0.0,WeatherDisplay:10.37,2013-02-19 14:10:00,
2013-02-19 06:15:00,41.1,37.2,29.90,SE,133,4.6,4.6,86,0.00,CLR,,0.00,0.0,WeatherDisplay:10.37,2013-02-19 14:15:00,
2013-02-19 06:20:00,41.2,37.3,29.90,ESE,117,4.6,4.6,86,0.00,CLR,,0.00,0.0,WeatherDisplay:10.37,2013-02-19 14:20:00,
2013-02-19 06:25:00,41.1,37.2,29.90,ESE,119,5.0,5.0,86,0.00,CLR,,0.00,0.0,WeatherDisplay:10.37,2013-02-19 14:25:00,
2013-02-19 06:30:00,41.0,37.1,29.90,SE,135,5.8,5.8,86,0.00,CLR,,0.00,0.0,WeatherDisplay:10.37,2013-02-19 14:30:00,
2013-02-19 06:35:00,41.1,37.5,29.90,SSE,152,3.5,3.5,87,0.00,CLR,,0.00,0.0,WeatherDisplay:10.37,2013-02-19 14:35:00,
2013-02-19 06:40:00,41.2,37.6,29.90,SSE,152,2.3,2.3,87,0.00,CLR,,0.00,0.0,WeatherDisplay:10.37,2013-02-19 14:40:00,
2013-02-19 06:45:00,41.4,37.8,29.89,ESE,108,4.0,4.0,87,0.00,CLR,,0.00,0.0,WeatherDisplay:10.37,2013-02-19 14:45:00,
2013-02-19 06:50:00,41.5,37.9,29.89,SE,126,3.5,3.5,87,0.00,CLR,,0.00,0.0,WeatherDisplay:10.37,2013-02-19 14:50:00,
2013-02-19 06:55:00,41.6,38.0,29.89,SSE,148,4.6,4.6,87,0.00,CLR,,0.00,0.0,WeatherDisplay:10.37,2013-02-19 14:55:00,
2013-02-19 07:00:00,41.7,38.1,29.89,SSE,154,5.8,5.8,87,0.00,CLR,,0.00,7.8,WeatherDisplay:10.37,2013-02-19 15:00:00,
2013-02-19 07:05:00,41.9,38.3,29.88,SSE,164,8.1,8.1,87,0.00,CLR,,0.00,10.0,WeatherDisplay:10.37,2013-02-19 15:05:00,
2013-02-19 07:10:00,42.2,38.6,29.88,SSE,150,5.8,5.8,87,0.00,CLR,,0.00,10.0,WeatherDisplay:10.37,2013-02-19 15:10:00,
2013-02-19 07:15:00,42.4,38.5,29.88,South,184,3.5,3.5,86,0.00,CLR,,0.00,12.2,WeatherDisplay:10.37,2013-02-19 15:15:00,
2013-02-19 07:20:00,42.5,38.6,29.88,South,178,4.6,4.6,86,0.00,CLR,,0.00,15.5,WeatherDisplay:10.37,2013-02-19 15:20:00,
2013-02-19 07:25:00,42.6,38.7,29.88,SSE,153,4.0,4.0,86,0.00,CLR,,0.00,23.3,WeatherDisplay:10.37,2013-02-19 15:25:00,
2013-02-19 07:30:00,42.8,38.6,29.88,SSE,149,4.0,4.0,85,0.00,CLR,,0.00,23.3,WeatherDisplay:10.37,2013-02-19 15:30:00,
2013-02-19 07:35:00,43.0,38.8,29.88,SSE,162,4.6,4.6,85,0.00,CLR,,0.00,21.1,WeatherDisplay:10.37,2013-02-19 15:35:00,
2013-02-19 07:40:00,43.3,38.8,29.88,SSW,194,3.5,3.5,84,0.00,CLR,,0.00,20.0,WeatherDisplay:10.37,2013-02-19 15:40:00,
2013-02-19 07:45:00,43.6,38.8,29.88,ESE,120,6.9,6.9,83,0.00,CLR,,0.00,21.1,WeatherDisplay:10.37,2013-02-19 15:45:00,
2013-02-19 07:50:00,43.4,38.3,29.88,South,171,9.2,9.2,82,0.00,CLR,,0.00,28.9,WeatherDisplay:10.37,2013-02-19 15:50:00,
2013-02-19 07:55:00,43.3,38.2,29.87,South,171,6.0,12.0,82,0.00,CLR,,0.00,43.3,WeatherDisplay:10.37,2013-02-19 15:55:00,
2013-02-19 08:00:00,43.3,38.2,29.87,South,173,9.2,9.2,82,0.00,CLR,,0.00,44.4,WeatherDisplay:10.37,2013-02-19 16:00:00,
2013-02-19 08:05:00,43.5,38.4,29.87,SE,139,6.0,6.0,82,0.00,OVC,,0.00,46.6,WeatherDisplay:10.37,2013-02-19 16:05:00,
2013-02-19 08:10:00,43.7,38.6,29.87,SSE,148,8.1,8.1,82,0.00,OVC,,0.00,51.1,WeatherDisplay:10.37,2013-02-19 16:10:00,
2013-02-19 08:15:00,44.0,38.5,29.86,SE,137,5.0,5.0,81,0.00,OVC,,0.00,69.9,WeatherDisplay:10.37,2013-02-19 16:15:00,
2013-02-19 08:20:00,44.2,38.7,29.86,SSE,167,7.0,7.0,81,0.00,OVC,,0.00,95.5,WeatherDisplay:10.37,2013-02-19 16:20:00,
2013-02-19 08:25:00,44.5,39.0,29.86,SSE,167,10.4,10.4,81,0.00,OVC,,0.00,154.3,WeatherDisplay:10.37,2013-02-19 16:25:00,
2013-02-19 08:30:00,44.7,38.9,29.86,SSE,157,12.7,12.7,80,0.00,OVC,,0.00,121.0,WeatherDisplay:10.37,2013-02-19 16:30:00,
2013-02-19 08:35:00,45.0,39.2,29.86,ESE,107,11.5,11.5,80,0.00,OVC,,0.00,97.7,WeatherDisplay:10.37,2013-02-19 16:35:00,
2013-02-19 08:40:00,45.2,39.1,29.86,South,171,13.8,13.8,79,0.00,OVC,,0.00,133.2,WeatherDisplay:10.37,2013-02-19 16:40:00,
2013-02-19 08:45:00,45.3,39.2,29.86,South,169,10.4,10.4,79,0.00,OVC,,0.00,154.3,WeatherDisplay:10.37,2013-02-19 16:45:00,
2013-02-19 08:50:00,45.6,39.5,29.86,South,173,15.0,15.0,79,0.00,OVC,,0.00,154.3,WeatherDisplay:10.37,2013-02-19 16:50:00,
2013-02-19 08:55:00,45.7,39.6,29.85,South,183,11.5,11.5,79,0.00,OVC,,0.00,115.4,WeatherDisplay:10.37,2013-02-19 16:55:00,
2013-02-19 09:00:00,45.9,39.4,29.85,SSW,198,12.7,12.7,78,0.00,OVC,,0.00,301.9,WeatherDisplay:10.37,2013-02-19 17:00:00,
2013-02-19 09:05:00,46.3,39.8,29.85,South,187,12.7,12.7,78,0.00,OVC,,0.00,180.9,WeatherDisplay:10.37,2013-02-19 17:05:00,
2013-02-19 09:10:00,46.5,39.7,29.85,South,187,16.1,16.1,77,0.00,OVC,,0.00,165.4,WeatherDisplay:10.37,2013-02-19 17:10:00,
2013-02-19 09:15:00,46.5,39.7,29.85,SSW,200,11.5,11.5,77,0.00,OVC,,0.00,123.2,WeatherDisplay:10.37,2013-02-19 17:15:00,
2013-02-19 09:20:00,46.6,39.8,29.85,SSW,205,11.5,11.5,77,0.00,OVC,,0.00,200.9,WeatherDisplay:10.37,2013-02-19 17:20:00,
2013-02-19 09:25:00,46.7,39.9,29.85,South,186,16.1,16.1,77,0.00,OVC,,0.00,236.4,WeatherDisplay:10.37,2013-02-19 17:25:00,
2013-02-19 09:30:00,46.9,40.1,29.84,SSE,163,11.5,11.5,77,0.00,OVC,,0.00,179.8,WeatherDisplay:10.37,2013-02-19 17:30:00,
2013-02-19 09:35:00,47.2,40.0,29.84,SSW,212,18.0,18.0,76,0.00,OVC,,0.00,327.5,WeatherDisplay:10.37,2013-02-19 17:35:00,
2013-02-19 09:40:00,47.4,40.2,29.83,SSW,196,17.3,17.3,76,0.00,OVC,,0.00,318.6,WeatherDisplay:10.37,2013-02-19 17:40:00,
2013-02-19 09:45:00,47.7,40.5,29.83,SW,220,19.6,19.6,76,0.00,OVC,,0.00,277.5,WeatherDisplay:10.37,2013-02-19 17:45:00,
2013-02-19 09:50:00,48.0,40.5,29.83,SE,138,19.6,19.6,75,0.00,OVC,,0.00,286.4,WeatherDisplay:10.37,2013-02-19 17:50:00,
2013-02-19 09:55:00,48.1,40.5,29.82,SSE,161,8.1,8.1,75,0.00,OVC,,0.00,263.1,WeatherDisplay:10.37,2013-02-19 17:55:00,
2013-02-19 10:00:00,48.4,40.8,29.82,SSE,159,13.0,13.0,75,0.00,OVC,,0.00,267.5,WeatherDisplay:10.37,2013-02-19 18:00:00,
2013-02-19 10:05:00,48.4,40.8,29.82,SSE,159,13.0,13.0,75,0.00,OVC,,0.00,267.5,WeatherDisplay:10.37,2013-02-19 18:05:00,
2013-02-19 10:10:00,48.6,41.0,29.82,SSE,148,11.5,12.0,75,0.00,OVC,,0.00,179.8,WeatherDisplay:10.37,2013-02-19 18:10:00,
2013-02-19 10:15:00,48.6,40.7,29.82,SE,138,11.5,12.0,74,0.00,OVC,,0.00,144.3,WeatherDisplay:10.37,2013-02-19 18:15:00,
2013-02-19 10:20:00,48.6,40.7,29.82,SSE,160,11.5,11.5,74,0.00,BKN,,0.00,146.5,WeatherDisplay:10.37,2013-02-19 18:20:00,
2013-02-19 10:25:00,48.8,41.2,29.81,South,184,11.5,11.5,75,0.00,BKN,,0.00,242.0,WeatherDisplay:10.37,2013-02-19 18:25:00,
2013-02-19 10:30:00,49.1,41.2,29.81,South,179,12.7,12.7,74,0.00,BKN,,0.00,273.1,WeatherDisplay:10.37,2013-02-19 18:30:00,
2013-02-19 10:35:00,49.3,41.0,29.81,SSE,165,17.3,17.3,73,0.00,BKN,,0.00,216.5,WeatherDisplay:10.37,2013-02-19 18:35:00,
2013-02-19 10:40:00,49.4,40.7,29.80,SSE,153,16.1,16.1,72,0.00,BKN,,0.00,116.6,WeatherDisplay:10.37,2013-02-19 18:40:00,
2013-02-19 10:45:00,49.4,41.1,29.80,SE,142,11.5,11.5,73,0.00,BKN,,0.00,84.4,WeatherDisplay:10.37,2013-02-19 18:45:00,
2013-02-19 10:50:00,49.3,41.4,29.80,South,184,16.1,16.1,74,0.00,BKN,,0.00,84.4,WeatherDisplay:10.37,2013-02-19 18:50:00,
2013-02-19 10:55:00,48.8,42.2,29.80,SSE,164,10.4,10.4,78,0.00,BKN,,0.00,131.0,WeatherDisplay:10.37,2013-02-19 18:55:00,
2013-02-19 11:00:00,48.5,42.3,29.80,South,172,13.0,13.0,79,0.00,BKN,,0.00,159.8,WeatherDisplay:10.37,2013-02-19 19:00:00,
2013-02-19 11:05:00,48.4,42.8,29.79,SSE,148,10.4,10.4,81,0.00,OVC,,0.00,138.8,WeatherDisplay:10.37,2013-02-19 19:05:00,
2013-02-19 11:10:00,48.5,42.6,29.79,SSE,157,10.0,10.0,80,0.00,OVC,,0.00,121.0,WeatherDisplay:10.37,2013-02-19 19:10:00,
2013-02-19 11:15:00,48.6,42.0,29.79,South,187,12.7,12.7,78,0.00,OVC,,0.00,85.5,WeatherDisplay:10.37,2013-02-19 19:15:00,
2013-02-19 11:20:00,48.8,42.2,29.80,South,182,16.1,16.1,78,0.00,OVC,,0.00,51.1,WeatherDisplay:10.37,2013-02-19 19:20:00,
2013-02-19 11:25:00,48.6,41.7,29.80,South,179,15.0,15.0,77,0.00,OVC,,0.00,38.9,WeatherDisplay:10.37,2013-02-19 19:25:00,
2013-02-19 11:30:00,48.1,42.5,29.81,SSW,202,9.2,9.2,81,0.00,OVC,,0.01,28.9,WeatherDisplay:10.37,2013-02-19 19:30:00,
2013-02-19 11:35:00,47.4,42.8,29.81,SSW,212,13.8,13.8,84,0.03,RA,,0.03,17.8,WeatherDisplay:10.37,2013-02-19 19:35:00,
2013-02-19 11:40:00,45.5,42.2,29.81,NW,313,11.5,11.5,88,0.06,RA,,0.06,31.1,WeatherDisplay:10.37,2013-02-19 19:40:00,
2013-02-19 11:45:00,44.0,41.5,29.82,WSW,249,6.9,6.9,91,0.08,RA,,0.09,35.5,WeatherDisplay:10.37,2013-02-19 19:45:00,
2013-02-19 11:50:00,43.3,41.4,29.82,West,261,6.9,6.9,93,0.11,RA,,0.11,35.5,WeatherDisplay:10.37,2013-02-19 19:50:00,
2013-02-19 11:55:00,43.0,41.4,29.82,WSW,245,4.6,4.6,94,0.14,RA,,0.14,41.1,WeatherDisplay:10.37,2013-02-19 19:55:00,
2013-02-19 12:00:00,42.8,41.2,29.82,WSW,253,2.3,2.3,94,0.15,RA,,0.15,46.6,WeatherDisplay:10.37,2013-02-19 20:00:00,
2013-02-19 12:05:00,42.6,41.3,29.81,WSW,244,3.5,0.0,95,0.18,RA,,0.18,36.6,WeatherDisplay:10.37,2013-02-19 20:05:00,
2013-02-19 12:10:00,42.6,41.3,29.81,WSW,240,2.3,2.3,95,0.19,RA,,0.19,31.1,WeatherDisplay:10.37,2013-02-19 20:10:00,
2013-02-19 12:15:00,42.5,41.2,29.80,WSW,237,3.5,3.5,95,0.21,RA,,0.21,31.1,WeatherDisplay:10.37,2013-02-19 20:15:00,
2013-02-19 12:20:00,42.5,41.4,29.80,WSW,243,2.3,2.3,96,0.22,RA,,0.22,27.8,WeatherDisplay:10.37,2013-02-19 20:20:00,
2013-02-19 12:25:00,42.7,41.6,29.80,WSW,243,1.1,1.1,96,0.23,RA,,0.23,28.9,WeatherDisplay:10.37,2013-02-19 20:25:00,
2013-02-19 12:30:00,42.8,41.7,29.79,WSW,242,0.0,0.0,96,0.24,RA,,0.24,33.3,WeatherDisplay:10.37,2013-02-19 20:30:00,
2013-02-19 12:35:00,42.7,41.6,29.79,WSW,243,0.0,0.0,96,0.22,RA,,0.25,44.4,WeatherDisplay:10.37,2013-02-19 20:35:00,
2013-02-19 12:40:00,42.7,41.6,29.78,WSW,243,1.0,0.0,96,0.19,RA,,0.25,84.4,WeatherDisplay:10.37,2013-02-19 20:40:00,
2013-02-19 12:45:00,42.7,41.6,29.78,WSW,242,2.3,2.3,96,0.18,RA,,0.26,105.5,WeatherDisplay:10.37,2013-02-19 20:45:00,
2013-02-19 12:50:00,42.6,41.5,29.78,WSW,240,1.1,1.1,96,0.15,RA,,0.26,95.5,WeatherDisplay:10.37,2013-02-19 20:50:00,
2013-02-19 12:55:00,42.5,41.4,29.77,WSW,238,3.5,3.5,96,0.12,OVC,,0.26,93.2,WeatherDisplay:10.37,2013-02-19 20:55:00,
2013-02-19 13:00:00,42.6,41.5,29.77,SSE,154,3.5,3.5,96,0.12,RA,,0.27,89.9,WeatherDisplay:10.37,2013-02-19 21:00:00,
2013-02-19 13:05:00,42.8,41.5,29.77,SSW,202,2.3,0.0,95,0.09,-RA,,0.27,72.2,WeatherDisplay:10.37,2013-02-19 21:05:00,
2013-02-19 13:10:00,42.8,41.5,29.77,SSW,195,0.0,0.0,95,0.08,-RA,,0.27,56.6,WeatherDisplay:10.37,2013-02-19 21:10:00,
2013-02-19 13:15:00,42.9,41.8,29.77,SSW,198,3.5,3.5,96,0.06,-RA,,0.27,66.6,WeatherDisplay:10.37,2013-02-19 21:15:00,
2013-02-19 13:20:00,43.1,42.0,29.77,SSW,197,0.0,0.0,96,0.05,-RA,,0.27,103.2,WeatherDisplay:10.37,2013-02-19 21:20:00,
2013-02-19 13:25:00,43.3,42.2,29.77,SSW,197,0.0,0.0,96,0.04,-RA,,0.27,159.8,WeatherDisplay:10.37,2013-02-19 21:25:00,
2013-02-19 13:30:00,43.5,42.7,29.76,SW,225,1.0,1.0,97,0.03,-RA,,0.27,180.9,WeatherDisplay:10.37,2013-02-19 21:30:00,
2013-02-19 13:35:00,43.7,42.9,29.76,SSW,199,0.0,0.0,97,0.02,-RA,,0.27,280.8,WeatherDisplay:10.37,2013-02-19 21:35:00,
2013-02-19 13:40:00,44.4,43.6,29.76,SSW,198,6.0,6.0,97,0.02,-RA,,0.27,497.3,WeatherDisplay:10.37,2013-02-19 21:40:00,
2013-02-19 13:45:00,45.1,44.6,29.75,SSW,206,1.1,1.1,98,0.01,-RA,,0.27,326.3,WeatherDisplay:10.37,2013-02-19 21:45:00,
2013-02-19 13:50:00,45.4,44.6,29.75,South,184,2.3,2.3,97,0.01,-RA,,0.27,249.8,WeatherDisplay:10.37,2013-02-19 21:50:00,
2013-02-19 13:55:00,45.1,44.0,29.75,SW,228,2.3,2.3,96,0.01,-RA,,0.27,242.0,WeatherDisplay:10.37,2013-02-19 21:55:00,
2013-02-19 14:00:00,45.1,43.8,29.75,SSW,196,4.6,4.6,95,0.00,-RA,,0.27,550.6,WeatherDisplay:10.37,2013-02-19 22:00:00,
2013-02-19 14:05:00,45.9,44.8,29.75,South,186,3.5,3.5,96,0.00,BKN,,0.27,883.6,WeatherDisplay:10.37,2013-02-19 22:05:00,
2013-02-19 14:10:00,46.7,45.3,29.75,SW,232,6.9,6.9,95,0.00,BKN,,0.27,515.0,WeatherDisplay:10.37,2013-02-19 22:10:00,
2013-02-19 14:15:00,46.6,44.4,29.75,West,263,3.5,3.5,92,0.00,BKN,,0.27,298.6,WeatherDisplay:10.37,2013-02-19 22:15:00,
2013-02-19 14:20:00,46.2,43.4,29.75,SW,220,5.0,5.0,90,0.00,BKN,,0.27,437.3,WeatherDisplay:10.37,2013-02-19 22:20:00,
2013-02-19 14:25:00,46.1,42.7,29.75,West,261,3.5,3.5,88,0.00,BKN,,0.27,357.4,WeatherDisplay:10.37,2013-02-19 22:25:00,
2013-02-19 14:30:00,46.2,42.8,29.75,WSW,248,8.1,8.1,88,0.00,BKN,,0.27,187.6,WeatherDisplay:10.37,2013-02-19 22:30:00,
2013-02-19 14:35:00,46.1,42.4,29.76,NW,315,9.2,9.2,87,0.00,BKN,,0.27,59.9,WeatherDisplay:10.37,2013-02-19 22:35:00,
2013-02-19 14:40:00,44.6,40.7,29.75,North,351,5.8,5.8,86,0.00,BKN,,0.27,58.8,WeatherDisplay:10.37,2013-02-19 22:40:00,
2013-02-19 14:45:00,43.7,40.4,29.76,NNW,345,5.8,5.8,88,0.00,BKN,,0.27,101.0,WeatherDisplay:10.37,2013-02-19 22:45:00,
2013-02-19 14:50:00,43.5,40.8,29.76,NNW,346,3.5,3.5,90,0.00,BKN,,0.27,74.4,WeatherDisplay:10.37,2013-02-19 22:50:00,
2013-02-19 14:55:00,43.4,40.7,29.75,North,355,2.3,2.3,90,0.00,BKN,,0.27,113.2,WeatherDisplay:10.37,2013-02-19 22:55:00,
2013-02-19 15:00:00,43.7,41.0,29.76,North,355,0.0,0.0,90,0.00,BKN,,0.27,113.2,WeatherDisplay:10.37,2013-02-19 23:00:00,
2013-02-19 15:05:00,44.1,41.4,29.75,North,355,0.0,0.0,90,0.00,BKN,,0.27,152.1,WeatherDisplay:10.37,2013-02-19 23:05:00,
2013-02-19 15:10:00,44.5,42.0,29.75,North,355,0.0,0.0,91,0.00,BKN,,0.27,128.8,WeatherDisplay:10.37,2013-02-19 23:10:00,
2013-02-19 15:15:00,44.7,41.9,29.74,North,355,0.0,0.0,90,0.00,BKN,,0.27,131.0,WeatherDisplay:10.37,2013-02-19 23:15:00,
2013-02-19 15:20:00,45.0,41.7,29.74,North,355,0.0,0.0,88,0.00,OVC,,0.27,162.1,WeatherDisplay:10.37,2013-02-19 23:20:00,
2013-02-19 15:25:00,45.0,41.7,29.74,North,355,0.0,0.0,88,0.00,OVC,,0.27,148.7,WeatherDisplay:10.37,2013-02-19 23:25:00,
2013-02-19 15:30:00,45.2,41.6,29.74,North,355,0.0,0.0,87,0.00,OVC,,0.27,121.0,WeatherDisplay:10.37,2013-02-19 23:30:00,
2013-02-19 15:35:00,45.5,41.9,29.74,North,355,0.0,0.0,87,0.00,OVC,,0.27,93.2,WeatherDisplay:10.37,2013-02-19 23:35:00,
2013-02-19 15:40:00,46.0,42.6,29.74,North,355,0.0,0.0,88,0.00,OVC,,0.27,101.0,WeatherDisplay:10.37,2013-02-19 23:40:00,
2013-02-19 15:45:00,46.0,41.1,29.75,North,355,0.0,0.0,83,0.00,OVC,,0.27,111.0,WeatherDisplay:10.37,2013-02-19 23:45:00,
2013-02-19 15:50:00,45.9,41.9,29.75,North,355,0.0,0.0,86,0.00,OVC,,0.27,113.2,WeatherDisplay:10.37,2013-02-19 23:50:00,
2013-02-19 15:55:00,45.9,41.9,29.74,North,355,2.3,0.0,86,0.00,OVC,,0.27,136.5,WeatherDisplay:10.37,2013-02-19 23:55:00,
2013-02-19 16:00:00,45.8,41.5,29.74,NNW,336,0.0,0.0,85,0.00,OVC,,0.27,131.0,WeatherDisplay:10.37,2013-02-20 00:00:00,
2013-02-19 16:05:00,46.1,42.1,29.74,NNW,334,0.0,0.0,86,0.00,BKN,,0.27,214.2,WeatherDisplay:10.37,2013-02-20 00:05:00,
2013-02-19 16:10:00,46.2,41.6,29.74,South,175,2.3,2.3,84,0.00,BKN,,0.27,205.4,WeatherDisplay:10.37,2013-02-20 00:10:00,
2013-02-19 16:15:00,46.4,41.2,29.74,South,175,4.6,4.6,82,0.00,BKN,,0.27,189.8,WeatherDisplay:10.37,2013-02-20 00:15:00,
2013-02-19 16:20:00,46.5,41.3,29.74,South,173,3.5,3.5,82,0.00,BKN,,0.27,164.3,WeatherDisplay:10.37,2013-02-20 00:20:00,
2013-02-19 16:25:00,46.6,41.4,29.73,SSE,165,4.0,4.0,82,0.00,BKN,,0.27,115.4,WeatherDisplay:10.37,2013-02-20 00:25:00,
2013-02-19 16:30:00,46.6,41.7,29.73,South,169,0.0,0.0,83,0.00,BKN,,0.27,79.9,WeatherDisplay:10.37,2013-02-20 00:30:00,
2013-02-19 16:35:00,46.8,42.2,29.73,South,175,4.6,4.6,84,0.00,BKN,,0.27,77.7,WeatherDisplay:10.37,2013-02-20 00:35:00,
2013-02-19 16:40:00,46.8,41.3,29.73,SSW,193,3.5,3.5,81,0.00,BKN,,0.27,72.2,WeatherDisplay:10.37,2013-02-20 00:40:00,
2013-02-19 16:45:00,46.8,41.0,29.73,South,188,3.5,3.5,80,0.00,BKN,,0.27,79.9,WeatherDisplay:10.37,2013-02-20 00:45:00,
2013-02-19 16:50:00,47.0,41.1,29.73,SSE,149,3.5,3.5,80,0.00,BKN,,0.27,85.5,WeatherDisplay:10.37,2013-02-20 00:50:00,
2013-02-19 16:55:00,47.1,41.2,29.72,SE,125,3.5,3.5,80,0.00,BKN,,0.27,64.4,WeatherDisplay:10.37,2013-02-20 00:55:00,
2013-02-19 17:00:00,47.2,42.0,29.73,ESE,111,2.3,2.3,82,0.00,BKN,,0.27,68.8,WeatherDisplay:10.37,2013-02-20 01:00:00,
2013-02-19 17:05:00,47.3,42.4,29.73,East,82,2.3,2.3,83,0.00,BKN,,0.27,56.6,WeatherDisplay:10.37,2013-02-20 01:05:00,
2013-02-19 17:10:00,47.0,42.7,29.73,East,82,3.5,3.5,85,0.00,BKN,,0.27,36.6,WeatherDisplay:10.37,2013-02-20 01:10:00,
2013-02-19 17:15:00,46.6,42.0,29.73,East,81,1.0,1.0,84,0.00,BKN,,0.27,27.8,WeatherDisplay:10.37,2013-02-20 01:15:00,
2013-02-19 17:20:00,46.0,41.7,29.73,East,88,3.0,3.0,85,0.00,SCT,,0.27,23.3,WeatherDisplay:10.37,2013-02-20 01:20:00,
2013-02-19 17:25:00,45.3,41.4,29.73,East,101,3.5,3.5,86,0.00,SCT,,0.27,21.1,WeatherDisplay:10.37,2013-02-20 01:25:00,
2013-02-19 17:30:00,44.7,41.4,29.73,East,82,8.1,8.1,88,0.00,SCT,,0.27,20.0,WeatherDisplay:10.37,2013-02-20 01:30:00,
2013-02-19 17:35:00,44.4,41.4,29.73,East,98,6.9,6.9,89,0.00,SCT,,0.27,13.3,WeatherDisplay:10.37,2013-02-20 01:35:00,
2013-02-19 17:40:00,44.0,41.0,29.73,ESE,115,4.0,4.0,89,0.00,SCT,,0.27,10.0,WeatherDisplay:10.37,2013-02-20 01:40:00,
2013-02-19 17:45:00,43.6,40.6,29.73,NE,51,8.1,8.1,89,0.00,SCT,,0.27,5.6,WeatherDisplay:10.37,2013-02-20 01:45:00,
2013-02-19 17:50:00,43.3,40.3,29.73,East,90,8.1,8.1,89,0.00,SCT,,0.27,0.0,WeatherDisplay:10.37,2013-02-20 01:50:00,
2013-02-19 17:55:00,43.1,40.4,29.73,East,101,4.6,4.6,90,0.00,SCT,,0.27,0.0,WeatherDisplay:10.37,2013-02-20 01:55:00,
2013-02-19 18:00:00,43.0,40.3,29.73,East,99,5.8,5.8,90,0.00,SCT,,0.27,0.0,WeatherDisplay:10.37,2013-02-20 02:00:00,
2013-02-19 18:05:00,42.9,40.5,29.73,ESE,110,8.1,8.1,91,0.00,FEW,,0.27,0.0,WeatherDisplay:10.37,2013-02-20 02:05:00,
2013-02-19 18:10:00,42.9,40.5,29.74,ESE,103,5.8,5.8,91,0.00,FEW,,0.27,0.0,WeatherDisplay:10.37,2013-02-20 02:10:00,
2013-02-19 18:15:00,42.8,40.6,29.73,ESE,102,6.0,6.0,92,0.00,FEW,,0.27,0.0,WeatherDisplay:10.37,2013-02-20 02:15:00,
2013-02-19 18:20:00,42.8,40.6,29.74,ESE,117,6.0,6.0,92,0.00,FEW,,0.27,0.0,WeatherDisplay:10.37,2013-02-20 02:20:00,
2013-02-19 18:25:00,42.9,40.7,29.74,ESE,104,4.6,4.6,92,0.00,FEW,,0.27,0.0,WeatherDisplay:10.37,2013-02-20 02:25:00,
2013-02-19 18:30:00,42.9,40.7,29.74,East,92,1.1,1.1,92,0.00,FEW,,0.27,0.0,WeatherDisplay:10.37,2013-02-20 02:30:00,
2013-02-19 18:35:00,42.9,40.7,29.74,ESE,111,4.6,4.6,92,0.00,FEW,,0.27,0.0,WeatherDisplay:10.37,2013-02-20 02:35:00,
2013-02-19 18:40:00,42.8,40.6,29.74,ESE,122,2.0,2.0,92,0.00,FEW,,0.27,0.0,WeatherDisplay:10.37,2013-02-20 02:40:00,
2013-02-19 18:45:00,42.7,40.5,29.74,ESE,111,5.8,5.8,92,0.00,FEW,,0.27,0.0,WeatherDisplay:10.37,2013-02-20 02:45:00,
2013-02-19 18:50:00,42.7,40.5,29.74,ESE,115,1.1,1.1,92,0.00,FEW,,0.27,0.0,WeatherDisplay:10.37,2013-02-20 02:50:00,
2013-02-19 18:55:00,42.5,40.3,29.74,ESE,107,3.5,3.5,92,0.00,FEW,,0.27,0.0,WeatherDisplay:10.37,2013-02-20 02:55:00,
2013-02-19 19:00:00,42.4,40.5,29.74,ESE,109,3.5,3.5,93,0.00,FEW,,0.27,0.0,WeatherDisplay:10.37,2013-02-20 03:00:00,
2013-02-19 19:05:00,42.3,40.1,29.74,ESE,107,6.9,6.9,92,0.00,FEW,,0.27,0.0,WeatherDisplay:10.37,2013-02-20 03:05:00,
2013-02-19 19:10:00,42.2,40.0,29.74,ESE,113,1.1,0.0,92,0.00,FEW,,0.27,0.0,WeatherDisplay:10.37,2013-02-20 03:10:00,
2013-02-19 19:15:00,42.1,40.2,29.74,ESE,109,2.3,2.3,93,0.00,FEW,,0.27,0.0,WeatherDisplay:10.37,2013-02-20 03:15:00,
2013-02-19 19:20:00,42.0,39.8,29.74,East,98,4.6,4.6,92,0.00,CLR,,0.27,0.0,WeatherDisplay:10.37,2013-02-20 03:20:00,
2013-02-19 19:25:00,41.9,39.7,29.74,ESE,109,3.5,3.5,92,0.00,CLR,,0.27,0.0,WeatherDisplay:10.37,2013-02-20 03:25:00,
2013-02-19 19:30:00,41.9,40.0,29.74,ESE,115,2.3,2.3,93,0.00,CLR,,0.27,0.0,WeatherDisplay:10.37,2013-02-20 03:30:00,
2013-02-19 19:35:00,41.9,39.7,29.74,SE,136,4.6,4.6,92,0.00,CLR,,0.27,0.0,WeatherDisplay:10.37,2013-02-20 03:35:00,
2013-02-19 19:40:00,41.9,39.7,29.74,SE,141,4.6,4.6,92,0.00,CLR,,0.27,0.0,WeatherDisplay:10.37,2013-02-20 03:40:00,
2013-02-19 19:45:00,41.9,39.7,29.74,SE,142,2.3,2.3,92,0.00,CLR,,0.27,0.0,WeatherDisplay:10.37,2013-02-20 03:45:00,
2013-02-19 19:50:00,41.9,39.7,29.74,SSE,152,2.3,2.3,92,0.00,CLR,,0.27,0.0,WeatherDisplay:10.37,2013-02-20 03:50:00,
2013-02-19 19:55:00,41.9,39.7,29.74,SSE,150,2.3,2.3,92,0.00,CLR,,0.27,0.0,WeatherDisplay:10.37,2013-02-20 03:55:00,
2013-02-19 20:00:00,41.9,39.7,29.74,SE,141,2.3,2.3,92,0.00,CLR,,0.27,0.0,WeatherDisplay:10.37,2013-02-20 04:00:00,
2013-02-19 20:05:00,41.8,39.6,29.74,ESE,105,2.0,2.0,92,0.00,OVC,,0.27,0.0,WeatherDisplay:10.37,2013-02-20 04:05:00,
2013-02-19 20:10:00,41.7,39.5,29.74,ESE,105,1.1,1.1,92,0.00,OVC,,0.27,0.0,WeatherDisplay:10.37,2013-02-20 04:10:00,
2013-02-19 20:15:00,41.5,39.3,29.74,East,98,3.5,3.5,92,0.00,OVC,,0.27,0.0,WeatherDisplay:10.37,2013-02-20 04:15:00,
2013-02-19 20:20:00,41.4,39.5,29.74,SE,136,0.0,0.0,93,0.00,OVC,,0.27,0.0,WeatherDisplay:10.37,2013-02-20 04:20:00,
2013-02-19 20:25:00,41.3,39.4,29.74,SE,136,0.0,0.0,93,0.00,OVC,,0.27,0.0,WeatherDisplay:10.37,2013-02-20 04:25:00,
2013-02-19 20:30:00,41.4,39.5,29.74,SE,136,0.0,0.0,93,0.00,OVC,,0.27,0.0,WeatherDisplay:10.37,2013-02-20 04:30:00,
2013-02-19 20:35:00,41.3,39.4,29.74,SE,136,0.0,0.0,93,0.00,OVC,,0.27,0.0,WeatherDisplay:10.37,2013-02-20 04:35:00,
2013-02-19 20:40:00,41.2,39.6,29.75,SE,136,0.0,0.0,94,0.00,OVC,,0.27,0.0,WeatherDisplay:10.37,2013-02-20 04:40:00,
2013-02-19 20:45:00,41.4,39.5,29.75,SE,136,0.0,0.0,93,0.00,OVC,,0.27,0.0,WeatherDisplay:10.37,2013-02-20 04:45:00,
2013-02-19 20:50:00,41.9,40.3,29.75,SE,136,0.0,0.0,94,0.00,OVC,,0.27,0.0,WeatherDisplay:10.37,2013-02-20 04:50:00,
2013-02-19 20:55:00,41.6,39.4,29.75,SE,136,0.0,0.0,92,0.00,OVC,,0.27,0.0,WeatherDisplay:10.37,2013-02-20 04:55:00,
2013-02-19 21:00:00,40.4,38.3,29.76,NW,304,4.0,4.0,92,0.00,OVC,,0.27,0.0,WeatherDisplay:10.37,2013-02-20 05:00:00,
2013-02-19 21:05:00,40.1,38.5,29.76,NW,322,3.5,3.5,94,0.00,OVC,,0.27,0.0,WeatherDisplay:10.37,2013-02-20 05:05:00,
2013-02-19 21:10:00,40.3,38.7,29.77,North,349,3.5,3.5,94,0.00,OVC,,0.27,0.0,WeatherDisplay:10.37,2013-02-20 05:10:00,
2013-02-19 21:15:00,40.4,38.8,29.76,NNW,334,5.8,5.8,94,0.00,OVC,,0.27,0.0,WeatherDisplay:10.37,2013-02-20 05:15:00,
2013-02-19 21:20:00,40.4,38.5,29.76,NE,41,2.3,0.0,93,0.00,FEW,,0.27,0.0,WeatherDisplay:10.37,2013-02-20 05:20:00,
2013-02-19 21:25:00,40.7,38.8,29.77,ENE,64,1.1,0.0,93,0.00,FEW,,0.27,0.0,WeatherDisplay:10.37,2013-02-20 05:25:00,
2013-02-19 21:30:00,41.3,39.7,29.77,ENE,64,0.0,0.0,94,0.00,FEW,,0.27,0.0,WeatherDisplay:10.37,2013-02-20 05:30:00,
2013-02-19 21:35:00,41.1,39.0,29.77,ENE,62,0.0,0.0,92,0.00,FEW,,0.27,0.0,WeatherDisplay:10.37,2013-02-20 05:35:00,
2013-02-19 21:40:00,41.3,39.2,29.77,ENE,62,0.0,0.0,92,0.00,FEW,,0.27,0.0,WeatherDisplay:10.37,2013-02-20 05:40:00,
2013-02-19 21:45:00,41.0,38.9,29.77,ENE,62,0.0,0.0,92,0.00,FEW,,0.27,0.0,WeatherDisplay:10.37,2013-02-20 05:45:00,
2013-02-19 21:50:00,40.7,38.6,29.77,ENE,57,1.1,1.1,92,0.00,FEW,,0.27,0.0,WeatherDisplay:10.37,2013-02-20 05:50:00,
2013-02-19 21:55:00,41.0,40.2,29.77,North,360,3.5,3.5,97,0.00,FEW,,0.27,0.0,WeatherDisplay:10.37,2013-02-20 05:55:00,
2013-02-19 22:00:00,40.7,38.0,29.78,North,10,2.3,2.3,90,0.00,FEW,,0.27,0.0,WeatherDisplay:10.37,2013-02-20 06:00:00,
2013-02-19 22:05:00,40.4,38.0,29.78,North,360,2.3,0.0,91,0.00,CLR,,0.27,0.0,WeatherDisplay:10.37,2013-02-20 06:05:00,
2013-02-19 22:10:00,40.4,38.3,29.78,North,360,1.1,1.1,92,0.00,CLR,,0.27,0.0,WeatherDisplay:10.37,2013-02-20 06:10:00,
2013-02-19 22:15:00,40.2,37.8,29.78,NW,324,0.0,0.0,91,0.00,CLR,,0.27,0.0,WeatherDisplay:10.37,2013-02-20 06:15:00,
2013-02-19 22:20:00,40.1,37.7,29.78,NNW,332,2.3,2.3,91,0.00,CLR,,0.27,0.0,WeatherDisplay:10.37,2013-02-20 06:20:00,
2013-02-19 22:25:00,39.9,37.5,29.78,NW,311,1.1,1.1,91,0.00,CLR,,0.27,0.0,WeatherDisplay:10.37,2013-02-20 06:25:00,
2013-02-19 22:30:00,40.0,37.9,29.78,NW,313,2.3,2.3,92,0.00,CLR,,0.27,0.0,WeatherDisplay:10.37,2013-02-20 06:30:00,
2013-02-19 22:35:00,40.0,37.6,29.78,WNW,295,4.0,4.0,91,0.00,CLR,,0.27,0.0,WeatherDisplay:10.37,2013-02-20 06:35:00,
2013-02-19 22:40:00,39.7,37.6,29.79,NNW,343,0.0,0.0,92,0.00,CLR,,0.27,0.0,WeatherDisplay:10.37,2013-02-20 06:40:00,
2013-02-19 22:45:00,39.6,37.5,29.79,NNW,336,1.0,0.0,92,0.00,CLR,,0.27,0.0,WeatherDisplay:10.37,2013-02-20 06:45:00,
2013-02-19 22:50:00,39.5,37.4,29.79,NNW,343,1.0,1.0,92,0.00,CLR,,0.27,0.0,WeatherDisplay:10.37,2013-02-20 06:50:00,
2013-02-19 22:55:00,39.4,37.3,29.79,NNW,336,2.3,0.0,92,0.00,CLR,,0.27,0.0,WeatherDisplay:10.37,2013-02-20 06:55:00,
2013-02-19 23:00:00,39.2,37.1,29.79,NW,306,0.0,0.0,92,0.00,CLR,,0.27,0.0,WeatherDisplay:10.37,2013-02-20 07:00:00,
2013-02-19 23:05:00,39.3,37.4,29.79,NW,322,1.1,1.1,93,0.00,FEW,,0.27,0.0,WeatherDisplay:10.37,2013-02-20 07:05:00,
2013-02-19 23:10:00,39.2,37.3,29.79,WNW,302,0.0,0.0,93,0.00,FEW,,0.27,0.0,WeatherDisplay:10.37,2013-02-20 07:10:00,
2013-02-19 23:15:00,38.9,37.0,29.79,NW,320,3.5,3.5,93,0.00,FEW,,0.27,0.0,WeatherDisplay:10.37,2013-02-20 07:15:00,
2013-02-19 23:20:00,38.7,36.9,29.80,WNW,300,3.5,3.5,93,0.00,FEW,,0.27,0.0,WeatherDisplay:10.37,2013-02-20 07:20:00,
2013-02-19 23:25:00,38.6,37.0,29.80,NW,317,3.5,3.5,94,0.00,FEW,,0.27,0.0,WeatherDisplay:10.37,2013-02-20 07:25:00,
2013-02-19 23:30:00,38.4,36.8,29.80,NNW,348,2.3,2.3,94,0.00,FEW,,0.27,0.0,WeatherDisplay:10.37,2013-02-20 07:30:00,
2013-02-19 23:35:00,38.2,36.6,29.80,NW,321,1.0,1.0,94,0.00,FEW,,0.27,0.0,WeatherDisplay:10.37,2013-02-20 07:35:00,
2013-02-19 23:40:00,37.9,36.3,29.81,WSW,258,3.0,0.0,94,0.00,FEW,,0.27,0.0,WeatherDisplay:10.37,2013-02-20 07:40:00,
2013-02-19 23:45:00,37.7,36.1,29.81,NW,323,3.5,3.5,94,0.00,FEW,,0.27,0.0,WeatherDisplay:10.37,2013-02-20 07:45:00,
2013-02-19 23:50:00,37.6,36.3,29.82,NNW,342,3.5,3.5,95,0.00,FEW,,0.27,0.0,WeatherDisplay:10.37,2013-02-20 07:50:00,
2013-02-19 23:55:00,37.5,36.2,29.82,NW,325,3.5,3.5,95,0.00,FEW,,0.27,0.0,WeatherDisplay:10.37,2013-02-20 07:55:00,